Location: Wawayanda State Park
(41.1833°N, 74.4333°W)
Time: 05:26:24
(UTC-04:00)

RESURS DK-1 - Visible Passes

Search period start: 19 August 2017 00:00
Search period end: 29 August 2017 00:00
Orbit: 555 x 565 km, 69.9° (Epoch: 19 August)

Date Brightness Start Highest point End Pass type
(mag) Time Alt. Az. Time Alt. Az. Time Alt. Az.
19 Aug 5.5 00:17:14 11° NNE 00:17:14 11° NNE 00:17:23 10° NNE visible
20 Aug 5.4 00:15:38 12° NNE 00:15:38 12° NNE 00:15:56 10° NNE visible
21 Aug 5.4 00:14:00 13° NNE 00:14:00 13° NNE 00:14:26 10° NNE visible
22 Aug 5.4 00:12:19 13° N 00:12:19 13° N 00:12:52 10° N visible
23 Aug 5.4 00:10:35 13° N 00:10:35 13° N 00:11:15 10° N visible
24 Aug 5.4 00:08:46 13° NNW 00:08:46 13° NNW 00:09:33 10° N visible
25 Aug 5.5 00:06:54 13° NNW 00:06:54 13° NNW 00:07:43 10° NNW visible
25 Aug 5.0 22:29:01 13° NNE 22:29:01 13° NNE 22:29:27 10° NNE visible
26 Aug 5.6 00:04:53 12° NNW 00:04:53 12° NNW 00:05:39 10° NNW visible
26 Aug 4.6 22:26:50 19° NNE 22:26:50 19° NNE 22:28:03 10° NNE visible
27 Aug 4.0 22:24:22 29° N 22:24:22 29° N 22:26:35 10° NNE visible
28 Aug 4.5 20:45:32 11° ENE 20:45:32 11° ENE 20:45:54 10° ENE visible
28 Aug 3.5 22:21:18 43° NW 22:21:18 43° NW 22:25:05 10° NNE visible
